Regional Weather Roundup
Issued by NWS

Home | Current Version | Previous Version | Graphics & Text | Print | Product List | Glossary On
Versions: 1 2 3 4 5 6 7 8 9 10 11 12 13 14 15 16 17 18 19 20 21 22 23 24 25 26 27 28 29 30 31 32 33 34 35 36 37 38 39 40 41 42 43 44 45 46 47 48 49 50
000
ASUS43 KLSX 190007
RWRMO

WEATHER SUMMARY FOR MISSOURI
NATIONAL WEATHER SERVICE SPRINGFIELD MO
700 PM CDT WED OCT 18 2017

NOTE: "FAIR" INDICATES FEW OR NO CLOUDS BELOW 12,000 FEET WITH NO
       SIGNIFICANT WEATHER AND/OR OBSTRUCTIONS TO VISIBILITY.
       CURRENT SKY AND/OR WEATHER CONDITIONS ARE NOT AVAILABLE FOR
       CHILLICOTHE AND FARMINGTON.

MOZ001>031-035>038-043-044-053-054-190100-
...NORTHERN AND WESTERN MISSOURI...

CITY           SKY/WX    TMP DP  RH WIND       PRES   REMARKS
KANSAS CTY INT PTCLDY    59  50  72 S10       30.00S
6HR MIN TEMP:  59; 6HR MAX TEMP:  74;

KANSAS C DTWN  CLEAR     68  50  52 S5        30.01R
6HR MIN TEMP:  68; 6HR MAX TEMP:  76;

LEE`S SUMMIT   CLOUDY    68  50  52 S12       30.03R
6HR MIN TEMP:  67; 6HR MAX TEMP:  74;

ST JOSEPH      CLEAR     65  52  62 SE7       29.99R
6HR MIN TEMP:  65; 6HR MAX TEMP:  76;

CHILLICOTHE      N/A     65  51  60 S5        30.03R
6HR MIN TEMP:  65; 6HR MAX TEMP:  74;

KIRKSVILLE     CLEAR     64  49  57 S7        30.03R
6HR MIN TEMP:  64; 6HR MAX TEMP:  73;


$$
MOZ066>068-077>081-088>096-101>105-190100-
...SOUTHWEST MISSOURI...

CITY           SKY/WX    TMP DP  RH WIND       PRES   REMARKS
SPRINGFIELD    CLEAR     65  45  48 S8        30.08R
6HR MIN TEMP:  65; 6HR MAX TEMP:  77;

JOPLIN         CLEAR     66  48  52 S9        30.07R
6HR MIN TEMP:  66; 6HR MAX TEMP:  77;

BRANSON        PTCLDY    66  41  39 SE7       30.12S

$$
MOZ032>034-039>042-045>050-055>058-069>072-190100-
...CENTRAL MISSOURI...

CITY           SKY/WX    TMP DP  RH WIND       PRES   REMARKS
COLUMBIA       CLEAR     64  47  53 S9        30.05F
6HR MIN TEMP:  64; 6HR MAX TEMP:  73;

JEFFERSON CITY CLEAR     64  47  53 SE7       30.05F
6HR MIN TEMP:  64; 6HR MAX TEMP:  75;

ROLLA          CLEAR     64  45  49 S10       30.10R
6HR MIN TEMP:  62; 6HR MAX TEMP:  75;

SEDALIA        PTCLDY    65  52  62 S12       30.04F
6HR MIN TEMP:  65; 6HR MAX TEMP:  76;

WHITEMAN AFB   CLEAR     63  51  66 S7        29.99S
WARRENSBURG    CLOUDY    66  50  55 S7        30.02R
OSAGE BEACH    CLEAR     68  45  43 S6        30.08S

$$
MOZ051-052-059>065-190100-
...EAST CENTRAL MISSOURI...

CITY           SKY/WX    TMP DP  RH WIND       PRES   REMARKS
ST LOUIS INTL  PTCLDY    69  47  45 S9        30.10R
6HR MIN TEMP:  69; 6HR MAX TEMP:  75;

SPIRIT OF STL  CLEAR     62  49  62 SE3       30.08R
6HR MIN TEMP:  62; 6HR MAX TEMP:  75;

ST CHARLES     CLEAR     62  46  55 SE8       30.08R
6HR MIN TEMP:  62; 6HR MAX TEMP:  76;


$$
MOZ072>076-082>087-097>100-106>115-190100-
...SOUTH CENTRAL AND SOUTHEAST MISSOURI...

CITY           SKY/WX    TMP DP  RH WIND       PRES   REMARKS
CAPE GIRARDEAU CLEAR     63  46  54 S7        30.16R
6HR MIN TEMP:  63; 6HR MAX TEMP:  74;

FARMINGTON     CLEAR     63  48  58 S8        30.15R
6HR MIN TEMP:  63; 6HR MAX TEMP:  72;

POPLAR BLUFF   CLEAR     66  47  50 S7        30.15S
6HR MIN TEMP:  65; 6HR MAX TEMP:  75;

WEST PLAINS    CLEAR     66  47  50 SE6       30.15R
6HR MIN TEMP:  66; 6HR MAX TEMP:  75;


$$



USA.gov is the U.S. government's official web portal to all federal, state and local government web resources and services.